Regional Weather Roundup
Issued by NWS

Home | Current Version | Previous Version | Graphics & Text | Print | Product List | Glossary On
Versions: 1 2 3 4 5 6 7 8 9 10 11 12 13 14 15 16 17 18 19 20 21 22 23 24 25 26 27 28 29 30 31 32 33 34 35 36 37 38 39 40 41 42 43 44 45 46 47 48 49 50
000
ASUS43 KIND 120909
RWRIN

WEATHER ROUNDUP FOR INDIANA
NATIONAL WEATHER SERVICE INDIANAPOLIS IN
400 AM EST FRI FEB 12 2016

NOTE: "FAIR" INDICATES FEW OR NO CLOUDS BELOW 12,000 FEET WITH NO
SIGNIFICANT WEATHER AND/OR OBSTRUCTIONS TO VISIBILITY.

* - STATION DOES NOT REPORT WEATHER SUCH AS PRECIPITATION OR FOG.

+ - STATION NOT QUALITY CONTROLLED BY THE NATIONAL WEATHER SERVICE.
    USE DATA WITH CAUTION...ESPECIALLY DEWPOINT AND RELATIVE
    HUMIDITY OBSERVATIONS.

INZ001>003-010>013-019-020-121000-
NORTHWEST INDIANA

CITY           SKY/WX    TMP DP  RH WIND       PRES   REMARKS
GARY /AIRPORT/ CLOUDY    21   8  58 CALM      30.19F
KNOX *+        CLOUDY    16  10  79 CALM      30.19F
LA PORTE +     CLOUDY    16  11  81 SW5       30.18F WCI   9
MICHIGAN CITY+ CLOUDY    18   9  68 SW7       30.18F WCI   8
MONTICELLO +   CLOUDY    18  10  72 CALM      30.19F
RENSSELAER +   CLOUDY    21  10  63 SW3       30.20F
VALPARAISO     CLOUDY    17  11  77 SW5       30.18F WCI  10

$$

LMZ046-743>745-121000-
SOUTHERN LAKE MICHIGAN

STATION/POSITION TIME  TEMP    WIND        PRES    WAVE
                       AIR SEA DIR/SP/G            HT
                 (UTC) (F)     (DEG/KT/KT) (MB)    (FT)
BURNS HARBOR     0800   19     210/  8/ 10 1023.4F
MICHIGAN CITY    0800   18     180/ 11/ 12   N/A

$$

INZ004-005-014>016-021>024-121000-
NORTH CENTRAL INDIANA

CITY           SKY/WX    TMP DP  RH WIND       PRES   REMARKS
GOSHEN         CLOUDY    14   8  77 SW8       30.17F WCI   3
LOGANSPORT +   CLOUDY    18  10  73 SW3       30.20F
PERU/GRISSOM   CLOUDY    16  11  81 SW5       30.17F WCI   9
ROCHESTER +    CLEAR     18   7  62 SW3       30.19F
SOUTH BEND     CLOUDY    12   6  77 SW7       30.17F WCI   1
WARSAW +       CLOUDY    14   9  79 CALM      30.17F

$$

INZ006>009-017-018-025>027-121000-
NORTHEAST INDIANA

CITY           SKY/WX    TMP DP  RH WIND       PRES   REMARKS
ANGOLA *+      CLOUDY     3   0  85 CALM      30.14F
AUBURN +       PTCLDY    10   7  85 CALM      30.18F
FORT WAYNE     CLOUDY    14   8  77 SW5       30.19F WCI   6
HUNTINGTON +   CLOUDY    13   5  71 CALM      30.18F

$$

INZ028-029-035-036-043>045-051>053-121000-
WEST CENTRAL INDIANA

CITY           SKY/WX    TMP DP  RH WIND       PRES   REMARKS
GREENCASTLE +  PTCLDY    19  12  73 CALM      30.20F
LAFAYETTE      CLOUDY    16  12  84 CALM      30.21F
TERRE HAUTE    CLOUDY    20  13  74 CALM      30.21F

$$

INZ030>032-037>040-046>048-054>057-064-065-121000-
CENTRAL INDIANA

CITY           SKY/WX    TMP DP  RH WIND       PRES   REMARKS
FISHERS *+     CLOUDY    16  14  93 CALM      30.19F
FRANKFORT +    CLEAR     17   9  69 CALM      30.20F
GREENWOOD *+   CLOUDY    21  14  73 CALM      30.20F
INDIANAPOLIS   CLOUDY    20  10  65 E3        30.18F
-EAGLE CREEK   CLOUDY    20  13  74 CALM      30.19F
KOKOMO *+      CLOUDY    12   7  79 CALM      30.19F
MARION +       CLOUDY    13   4  68 CALM      30.19F
MT COMFORT *+  PTCLDY    18  12  79 CALM      30.19F
SHELBYVILLE    MOCLDY    17  10  74 E5        30.19F WCI  10
ZIONSVILLE +   CLOUDY    15  12  86 CALM      30.19F

$$

INZ033-034-041-042-049-050-058-059-121000-
EAST CENTRAL INDIANA

CITY           SKY/WX    TMP DP  RH WIND       PRES   REMARKS
MUNCIE         CLOUDY    16   8  71 S3        30.19F

$$

INZ060-061-067>069-081>083-085>088-121000-
SOUTHWEST INDIANA

CITY           SKY/WX    TMP DP  RH WIND       PRES   REMARKS
EVANSVILLE     CLOUDY    29  15  56 NE3       30.23S
HUNTINGBURG *+ CLOUDY    27  14  59 CALM      30.22R
WASHINGTON +   CLOUDY    25  13  60 CALM      30.22S

$$

INZ062-063-066-070>080-084-089>092-121000-
SOUTH CENTRAL AND SOUTHEAST INDIANA

CITY           SKY/WX    TMP DP  RH WIND       PRES   REMARKS
BEDFORD +      CLOUDY    23  14  68 CALM      30.20F
BLOOMINGTON    CLOUDY    19  12  74 CALM      30.19F
MADISON *+     CLOUDY    21  10  63 E3        30.22F
NORTH VERNON + CLOUDY    21  10  63 CALM      30.21F
SEYMOUR +      CLOUDY    23  12  63 E6        30.20F WCI  16

$$




USA.gov is the U.S. government's official web portal to all federal, state and local government web resources and services.